Location: Newark
(39.6867°N, 100.6772°W)
Time: 14:02:51
(UTC+00:00)

Explorer 11/Cluster Stage 4 - Pass Details

Date: 25 October 2019
Orbit: 467 x 1259 km, 28.8° (Epoch: 19 November)

Event Time Altitude Azimuth Distance (km) Brightness Sun altitude
Rises 14:33:41 0° 237° (WSW) 2,717 9.1 15.1°
Reaches altitude 10° 14:36:48 10° 214° (SSW) 1,719 8.4 15.7°
Maximum altitude 14:39:06 15° 177° (S) 1,369 8.5 16.0°
Drops below altitude 10° 14:41:18 10° 140° (SE) 1,625 10.0 16.4°
Sets 14:44:06 0° 115° (ESE) 2,482 10.9 16.9°
